Year,Month,Day,Hour,Minute,Value (Times are PST for temperature in C)
2014,06,25,00,00,14.80
2014,06,25,00,01,14.80
2014,06,25,00,02,14.80
2014,06,25,00,03,14.80
2014,06,25,00,04,14.80
2014,06,25,00,05,14.80
2014,06,25,00,06,14.80
2014,06,25,00,07,14.80
2014,06,25,00,08,14.80
2014,06,25,00,09,14.80
2014,06,25,00,10,14.80
2014,06,25,00,11,14.70
2014,06,25,00,12,14.70
2014,06,25,00,13,14.70
2014,06,25,00,14,14.70
2014,06,25,00,15,14.70
2014,06,25,00,16,14.70
2014,06,25,00,17,14.70
2014,06,25,00,18,14.70
2014,06,25,00,19,14.70
2014,06,25,00,20,14.70
2014,06,25,00,21,14.70
2014,06,25,00,22,14.70
2014,06,25,00,23,14.70
2014,06,25,00,24,14.70
2014,06,25,00,25,14.70
2014,06,25,00,26,14.70
2014,06,25,00,27,14.70
2014,06,25,00,28,14.70
2014,06,25,00,29,14.70
2014,06,25,00,30,14.70
2014,06,25,00,31,14.70
2014,06,25,00,32,14.70
2014,06,25,00,33,14.70
2014,06,25,00,34,14.70
2014,06,25,00,35,14.70
2014,06,25,00,36,14.70
2014,06,25,00,37,14.70
2014,06,25,00,38,14.70
2014,06,25,00,39,14.70
2014,06,25,00,40,14.70
2014,06,25,00,41,14.70
2014,06,25,00,42,14.70
2014,06,25,00,43,14.70
2014,06,25,00,44,14.60
2014,06,25,00,45,14.60
2014,06,25,00,46,14.60
2014,06,25,00,47,14.60
2014,06,25,00,48,14.60
2014,06,25,00,49,14.60
2014,06,25,00,50,14.50
2014,06,25,00,51,14.50
2014,06,25,00,52,14.50
2014,06,25,00,53,14.50
2014,06,25,00,54,14.40
2014,06,25,00,55,14.40
2014,06,25,00,56,14.40
2014,06,25,00,57,14.40
2014,06,25,00,58,14.40
2014,06,25,00,59,14.30
2014,06,25,01,00,14.30
2014,06,25,01,01,14.30
2014,06,25,01,02,14.30
2014,06,25,01,03,14.30
2014,06,25,01,04,14.30
2014,06,25,01,05,14.30
2014,06,25,01,06,14.20
2014,06,25,01,07,14.20
2014,06,25,01,08,14.20
2014,06,25,01,09,14.20
2014,06,25,01,10,14.20
2014,06,25,01,11,14.20
2014,06,25,01,12,14.10
2014,06,25,01,13,14.10
2014,06,25,01,14,14.10
2014,06,25,01,15,14.10
2014,06,25,01,16,14.10
2014,06,25,01,17,14.00
2014,06,25,01,18,14.00
2014,06,25,01,19,14.00
2014,06,25,01,20,14.00
2014,06,25,01,21,13.90
2014,06,25,01,22,13.90
2014,06,25,01,23,13.90
2014,06,25,01,24,13.90
2014,06,25,01,25,13.80
2014,06,25,01,26,13.80
2014,06,25,01,27,13.80
2014,06,25,01,28,13.70
2014,06,25,01,29,13.70
2014,06,25,01,30,13.70
2014,06,25,01,31,13.70
2014,06,25,01,32,13.60
2014,06,25,01,33,13.60
2014,06,25,01,34,13.60
2014,06,25,01,35,13.60
2014,06,25,01,36,13.60
2014,06,25,01,37,13.50
2014,06,25,01,38,13.50
2014,06,25,01,39,13.50
2014,06,25,01,40,13.50
2014,06,25,01,41,13.50
2014,06,25,01,42,13.50
2014,06,25,01,43,13.50
2014,06,25,01,44,13.50
2014,06,25,01,45,13.50
2014,06,25,01,46,13.50
2014,06,25,01,47,13.60
2014,06,25,01,48,13.60
2014,06,25,01,49,13.60
2014,06,25,01,50,13.60
2014,06,25,01,51,13.60
2014,06,25,01,52,13.60
2014,06,25,01,53,13.60
2014,06,25,01,54,13.60
2014,06,25,01,55,13.60
2014,06,25,01,56,13.60
2014,06,25,01,57,13.60
2014,06,25,01,58,13.60
2014,06,25,01,59,13.60
2014,06,25,02,00,13.60
2014,06,25,02,01,13.60
2014,06,25,02,02,13.60
2014,06,25,02,03,13.60
2014,06,25,02,04,13.60
2014,06,25,02,05,13.60
2014,06,25,02,06,13.60
2014,06,25,02,07,13.60
2014,06,25,02,08,13.60
2014,06,25,02,09,13.60
2014,06,25,02,10,13.50
2014,06,25,02,11,13.50
2014,06,25,02,12,13.50
2014,06,25,02,13,13.50
2014,06,25,02,14,13.50
2014,06,25,02,15,13.50
2014,06,25,02,16,13.50
2014,06,25,02,17,13.50
2014,06,25,02,18,13.50
2014,06,25,02,19,13.50
2014,06,25,02,20,13.50
2014,06,25,02,21,13.50
2014,06,25,02,22,13.50
2014,06,25,02,23,13.50
2014,06,25,02,24,13.50
2014,06,25,02,25,13.50
2014,06,25,02,26,13.50
2014,06,25,02,27,13.50
2014,06,25,02,28,13.50
2014,06,25,02,29,13.50
2014,06,25,02,30,13.50
2014,06,25,02,31,13.50
2014,06,25,02,32,13.50
2014,06,25,02,33,13.50
2014,06,25,02,34,13.50
2014,06,25,02,35,13.50
2014,06,25,02,36,13.50
2014,06,25,02,37,13.60
2014,06,25,02,38,13.60
2014,06,25,02,39,13.60
2014,06,25,02,40,13.60
2014,06,25,02,41,13.60
2014,06,25,02,42,13.60
2014,06,25,02,43,13.60
2014,06,25,02,44,13.60
2014,06,25,02,45,13.60
2014,06,25,02,46,13.60
2014,06,25,02,47,13.60
2014,06,25,02,48,13.60
2014,06,25,02,49,13.60
2014,06,25,02,50,13.60
2014,06,25,02,51,13.60
2014,06,25,02,52,13.60
2014,06,25,02,53,13.60
2014,06,25,02,54,13.60
2014,06,25,02,55,13.50
2014,06,25,02,56,13.50
2014,06,25,02,57,13.50
2014,06,25,02,58,13.50
2014,06,25,02,59,13.50
2014,06,25,03,00,13.50
2014,06,25,03,01,13.50
2014,06,25,03,02,13.50
2014,06,25,03,03,13.40
2014,06,25,03,04,13.40
2014,06,25,03,05,13.40
2014,06,25,03,06,13.40
2014,06,25,03,07,13.40
2014,06,25,03,08,13.40
2014,06,25,03,09,13.40
2014,06,25,03,10,13.40
2014,06,25,03,11,13.40
2014,06,25,03,12,13.40
2014,06,25,03,13,13.40
2014,06,25,03,14,13.40
2014,06,25,03,15,13.40
2014,06,25,03,16,13.40
2014,06,25,03,17,13.30
2014,06,25,03,18,13.30
2014,06,25,03,19,13.30
2014,06,25,03,20,13.30
2014,06,25,03,21,13.30
2014,06,25,03,22,13.30
2014,06,25,03,23,13.30
2014,06,25,03,24,13.30
2014,06,25,03,25,13.30
2014,06,25,03,26,13.20
2014,06,25,03,27,13.20
2014,06,25,03,28,13.20
2014,06,25,03,29,13.20
2014,06,25,03,30,13.20
2014,06,25,03,31,13.20
2014,06,25,03,32,13.20
2014,06,25,03,33,13.20
2014,06,25,03,34,13.20
2014,06,25,03,35,13.20
2014,06,25,03,36,13.10
2014,06,25,03,37,13.10
2014,06,25,03,38,13.10
2014,06,25,03,39,13.10
2014,06,25,03,40,13.10
2014,06,25,03,41,13.10
2014,06,25,03,42,13.10
2014,06,25,03,43,13.10
2014,06,25,03,44,13.10
2014,06,25,03,45,13.10
2014,06,25,03,46,13.10
2014,06,25,03,47,13.10
2014,06,25,03,48,13.00
2014,06,25,03,49,13.00
2014,06,25,03,50,13.00
2014,06,25,03,51,13.00
2014,06,25,03,52,13.00
2014,06,25,03,53,13.00
2014,06,25,03,54,13.00
2014,06,25,03,55,12.90
2014,06,25,03,56,12.90
2014,06,25,03,57,12.90
2014,06,25,03,58,12.90
2014,06,25,03,59,12.90
2014,06,25,04,00,12.90
2014,06,25,04,01,12.90
2014,06,25,04,02,12.90
2014,06,25,04,03,12.80
2014,06,25,04,04,12.80
2014,06,25,04,05,12.80
2014,06,25,04,06,12.80
2014,06,25,04,07,12.80
2014,06,25,04,08,12.80
2014,06,25,04,09,12.80
2014,06,25,04,10,12.80
2014,06,25,04,11,12.70
2014,06,25,04,12,12.70
2014,06,25,04,13,12.70
2014,06,25,04,14,12.70
2014,06,25,04,15,12.70
2014,06,25,04,16,12.70
2014,06,25,04,17,12.60
2014,06,25,04,18,12.60
2014,06,25,04,19,12.60
2014,06,25,04,20,12.60
2014,06,25,04,21,12.60
2014,06,25,04,22,12.60
2014,06,25,04,23,12.60
2014,06,25,04,24,12.60
2014,06,25,04,25,12.50
2014,06,25,04,26,12.50
2014,06,25,04,27,12.50
2014,06,25,04,28,12.50
2014,06,25,04,29,12.50
2014,06,25,04,30,12.50
2014,06,25,04,31,12.50
2014,06,25,04,32,12.40
2014,06,25,04,33,12.40
2014,06,25,04,34,12.40
2014,06,25,04,35,12.40
2014,06,25,04,36,12.40
2014,06,25,04,37,12.40
2014,06,25,04,38,12.40
2014,06,25,04,39,12.30
2014,06,25,04,40,12.30
2014,06,25,04,41,12.30
2014,06,25,04,42,12.30
2014,06,25,04,43,12.30
2014,06,25,04,44,12.30
2014,06,25,04,45,12.30
2014,06,25,04,46,12.20
2014,06,25,04,47,12.20
2014,06,25,04,48,12.20
2014,06,25,04,49,12.20
2014,06,25,04,50,12.20
2014,06,25,04,51,12.20
2014,06,25,04,52,12.20
2014,06,25,04,53,12.20
2014,06,25,04,54,12.20
2014,06,25,04,55,12.20
2014,06,25,04,56,12.10
2014,06,25,04,57,12.10
2014,06,25,04,58,12.10
2014,06,25,04,59,12.10
2014,06,25,05,00,12.10
2014,06,25,05,01,12.10
2014,06,25,05,02,12.10
2014,06,25,05,03,12.10
2014,06,25,05,04,12.10
2014,06,25,05,05,12.00
2014,06,25,05,06,12.00
2014,06,25,05,07,12.00
2014,06,25,05,08,12.00
2014,06,25,05,09,12.00
2014,06,25,05,10,12.00
2014,06,25,05,11,12.00
2014,06,25,05,12,11.90
2014,06,25,05,13,11.90
2014,06,25,05,14,11.90
2014,06,25,05,15,11.90
2014,06,25,05,16,11.90
2014,06,25,05,17,11.90
2014,06,25,05,18,11.90
2014,06,25,05,19,11.80
2014,06,25,05,20,11.80
2014,06,25,05,21,11.80
2014,06,25,05,22,11.80
2014,06,25,05,23,11.80
2014,06,25,05,24,11.80
2014,06,25,05,25,11.80
2014,06,25,05,26,11.80
2014,06,25,05,27,11.80
2014,06,25,05,28,11.90
2014,06,25,05,29,11.90
2014,06,25,05,30,11.90
2014,06,25,05,31,11.90
2014,06,25,05,32,11.90
2014,06,25,05,33,11.90
2014,06,25,05,34,11.90
2014,06,25,05,35,11.90
2014,06,25,05,36,11.90
2014,06,25,05,37,11.90
2014,06,25,05,38,11.90
2014,06,25,05,39,11.90
2014,06,25,05,40,11.90
2014,06,25,05,41,11.90
2014,06,25,05,42,11.90
2014,06,25,05,43,12.00
2014,06,25,05,44,12.00
2014,06,25,05,45,12.00
2014,06,25,05,46,12.00
2014,06,25,05,47,12.00
2014,06,25,05,48,12.00
2014,06,25,05,49,12.00
2014,06,25,05,50,12.00
2014,06,25,05,51,12.00
2014,06,25,05,52,12.00
2014,06,25,05,53,12.00
2014,06,25,05,54,12.00
2014,06,25,05,55,12.00
2014,06,25,05,56,12.00
2014,06,25,05,57,12.00
2014,06,25,05,58,12.10
2014,06,25,05,59,12.10
2014,06,25,06,00,12.10
2014,06,25,06,01,12.10
2014,06,25,06,02,12.10
2014,06,25,06,03,12.10
2014,06,25,06,04,12.10
2014,06,25,06,05,12.10
2014,06,25,06,06,12.10
2014,06,25,06,07,12.10
2014,06,25,06,08,12.10
2014,06,25,06,09,12.10
2014,06,25,06,10,12.10
2014,06,25,06,11,12.10
2014,06,25,06,12,12.10
2014,06,25,06,13,12.10
2014,06,25,06,14,12.10
2014,06,25,06,15,12.10
2014,06,25,06,16,12.20
2014,06,25,06,17,12.20
2014,06,25,06,18,12.20
2014,06,25,06,19,12.20
2014,06,25,06,20,12.20
2014,06,25,06,21,12.20
2014,06,25,06,22,12.20
2014,06,25,06,23,12.20
2014,06,25,06,24,12.20
2014,06,25,06,25,12.20
2014,06,25,06,26,12.20
2014,06,25,06,27,12.20
2014,06,25,06,28,12.20
2014,06,25,06,29,12.20
2014,06,25,06,30,12.20
2014,06,25,06,31,12.20
2014,06,25,06,32,12.30
2014,06,25,06,33,12.30
2014,06,25,06,34,12.30
2014,06,25,06,35,12.30
2014,06,25,06,36,12.30
2014,06,25,06,37,12.30
2014,06,25,06,38,12.30
2014,06,25,06,39,12.30
2014,06,25,06,40,12.30
2014,06,25,06,41,12.30
2014,06,25,06,42,12.30
2014,06,25,06,43,12.30
2014,06,25,06,44,12.30
2014,06,25,06,45,12.30
2014,06,25,06,46,12.30
2014,06,25,06,47,12.30
2014,06,25,06,48,12.30
2014,06,25,06,49,12.30
2014,06,25,06,50,12.40
2014,06,25,06,51,12.40
2014,06,25,06,52,12.40
2014,06,25,06,53,12.40
2014,06,25,06,54,12.40
2014,06,25,06,55,12.40
2014,06,25,06,56,12.40
2014,06,25,06,57,12.50
2014,06,25,06,58,12.50
2014,06,25,06,59,12.50
2014,06,25,07,00,12.60
2014,06,25,07,01,12.60
2014,06,25,07,02,12.60
2014,06,25,07,03,12.60
2014,06,25,07,04,12.60
2014,06,25,07,05,12.70
2014,06,25,07,06,12.70
2014,06,25,07,07,12.70
2014,06,25,07,08,12.70
2014,06,25,07,09,12.70
2014,06,25,07,10,12.70
2014,06,25,07,11,12.80
2014,06,25,07,12,12.80
2014,06,25,07,13,12.80
2014,06,25,07,14,12.80
2014,06,25,07,15,12.80
2014,06,25,07,16,12.90
2014,06,25,07,17,12.90
2014,06,25,07,18,13.00
2014,06,25,07,19,13.00
2014,06,25,07,20,13.00
2014,06,25,07,21,13.10
2014,06,25,07,22,13.10
2014,06,25,07,23,13.10
2014,06,25,07,24,13.10
2014,06,25,07,25,13.10
2014,06,25,07,26,13.10
2014,06,25,07,27,13.10
2014,06,25,07,28,13.10
2014,06,25,07,29,13.10
2014,06,25,07,30,13.10
2014,06,25,07,31,13.20
2014,06,25,07,32,13.20
2014,06,25,07,33,13.20
2014,06,25,07,34,13.20
2014,06,25,07,35,13.30
2014,06,25,07,36,13.30
2014,06,25,07,37,13.30
2014,06,25,07,38,13.30
2014,06,25,07,39,13.30
2014,06,25,07,40,13.30
2014,06,25,07,41,13.30
2014,06,25,07,42,13.40
2014,06,25,07,43,13.40
2014,06,25,07,44,13.40
2014,06,25,07,45,13.40
2014,06,25,07,46,13.40
2014,06,25,07,47,13.40
2014,06,25,07,48,13.40
2014,06,25,07,49,13.40
2014,06,25,07,50,13.40
2014,06,25,07,51,13.40
2014,06,25,07,52,13.40
2014,06,25,07,53,13.40
2014,06,25,07,54,13.50
2014,06,25,07,55,13.50
2014,06,25,07,56,13.60
2014,06,25,07,57,13.60
2014,06,25,07,58,13.60
2014,06,25,07,59,13.70
2014,06,25,08,00,13.70
2014,06,25,08,01,13.70
2014,06,25,08,02,13.80
2014,06,25,08,03,13.80
2014,06,25,08,04,13.80
2014,06,25,08,05,13.80
2014,06,25,08,06,13.80
2014,06,25,08,07,13.80
2014,06,25,08,08,13.80
2014,06,25,08,09,13.90
2014,06,25,08,10,13.90
2014,06,25,08,11,13.80
2014,06,25,08,12,13.80
2014,06,25,08,13,13.80
2014,06,25,08,14,13.80
2014,06,25,08,15,13.70
2014,06,25,08,16,13.70
2014,06,25,08,17,13.70
2014,06,25,08,18,13.70
2014,06,25,08,19,13.70
2014,06,25,08,20,13.70
2014,06,25,08,21,13.70
2014,06,25,08,22,13.70
2014,06,25,08,23,13.70
2014,06,25,08,24,13.70
2014,06,25,08,25,13.70
2014,06,25,08,26,13.70
2014,06,25,08,27,13.70
2014,06,25,08,28,13.80
2014,06,25,08,29,13.80
2014,06,25,08,30,13.80
2014,06,25,08,31,13.90
2014,06,25,08,32,13.90
2014,06,25,08,33,13.90
2014,06,25,08,34,14.00
2014,06,25,08,35,14.00
2014,06,25,08,36,14.10
2014,06,25,08,37,14.10
2014,06,25,08,38,14.20
2014,06,25,08,39,14.20
2014,06,25,08,40,14.30
2014,06,25,08,41,14.40
2014,06,25,08,42,14.50
2014,06,25,08,43,14.50
2014,06,25,08,44,14.60
2014,06,25,08,45,14.60
2014,06,25,08,46,14.70
2014,06,25,08,47,14.70
2014,06,25,08,48,14.80
2014,06,25,08,49,14.80
2014,06,25,08,50,14.90
2014,06,25,08,51,14.90
2014,06,25,08,52,15.00
2014,06,25,08,53,15.10
2014,06,25,08,54,15.10
2014,06,25,08,55,15.20
2014,06,25,08,56,15.20
2014,06,25,08,57,15.20
2014,06,25,08,58,15.20
2014,06,25,08,59,15.20
2014,06,25,09,00,15.30
2014,06,25,09,01,15.30
2014,06,25,09,02,15.40
2014,06,25,09,03,15.50
2014,06,25,09,04,15.60
2014,06,25,09,05,15.70
2014,06,25,09,06,15.80
2014,06,25,09,07,15.90
2014,06,25,09,08,16.00
2014,06,25,09,09,16.00
2014,06,25,09,10,16.10
2014,06,25,09,11,16.00
2014,06,25,09,12,16.00
2014,06,25,09,13,15.90
2014,06,25,09,14,15.90
2014,06,25,09,15,15.90
2014,06,25,09,16,15.90
2014,06,25,09,17,15.90
2014,06,25,09,18,15.90
2014,06,25,09,19,15.90
2014,06,25,09,20,15.90
2014,06,25,09,21,15.90
2014,06,25,09,22,15.90
2014,06,25,09,23,15.90
2014,06,25,09,24,15.90
2014,06,25,09,25,15.90
2014,06,25,09,26,15.90
2014,06,25,09,27,16.00
2014,06,25,09,28,16.00
2014,06,25,09,29,16.10
2014,06,25,09,30,16.10
2014,06,25,09,31,16.20
2014,06,25,09,32,16.20
2014,06,25,09,33,16.20
2014,06,25,09,34,16.20
2014,06,25,09,35,16.20
2014,06,25,09,36,16.30
2014,06,25,09,37,16.30
2014,06,25,09,38,16.30
2014,06,25,09,39,16.30
2014,06,25,09,40,16.30
2014,06,25,09,41,16.30
2014,06,25,09,42,16.30
2014,06,25,09,43,16.40
2014,06,25,09,44,16.40
2014,06,25,09,45,16.50
2014,06,25,09,46,16.60
2014,06,25,09,47,16.70
2014,06,25,09,48,16.80
2014,06,25,09,49,16.80
2014,06,25,09,50,16.90
2014,06,25,09,51,17.00
2014,06,25,09,52,17.10
2014,06,25,09,53,17.10
2014,06,25,09,54,17.20
2014,06,25,09,55,17.30
2014,06,25,09,56,17.40
2014,06,25,09,57,17.50
2014,06,25,09,58,17.60
2014,06,25,09,59,17.60
2014,06,25,10,00,17.60
2014,06,25,10,01,17.70
2014,06,25,10,02,17.80
2014,06,25,10,03,17.80
2014,06,25,10,04,17.90
2014,06,25,10,05,18.00
2014,06,25,10,06,18.00
2014,06,25,10,07,18.10
2014,06,25,10,08,18.10
2014,06,25,10,09,18.20
2014,06,25,10,10,18.30
2014,06,25,10,11,18.30
2014,06,25,10,12,18.30
2014,06,25,10,13,18.30
2014,06,25,10,14,18.30
2014,06,25,10,15,18.30
2014,06,25,10,16,18.30
2014,06,25,10,17,18.30
2014,06,25,10,18,18.30
2014,06,25,10,19,18.30
2014,06,25,10,20,18.40
2014,06,25,10,21,18.40
2014,06,25,10,22,18.50
2014,06,25,10,23,18.60
2014,06,25,10,24,18.80
2014,06,25,10,25,18.80
2014,06,25,10,26,18.90
2014,06,25,10,27,18.90
2014,06,25,10,28,18.90
2014,06,25,10,29,18.90
2014,06,25,10,30,18.90
2014,06,25,10,31,18.90
2014,06,25,10,32,18.90
2014,06,25,10,33,18.80
2014,06,25,10,34,18.80
2014,06,25,10,35,18.80
2014,06,25,10,36,18.70
2014,06,25,10,37,18.70
2014,06,25,10,38,18.70
2014,06,25,10,39,18.70
2014,06,25,10,40,18.70
2014,06,25,10,41,18.80
2014,06,25,10,42,18.80
2014,06,25,10,43,18.80
2014,06,25,10,44,18.70
2014,06,25,10,45,18.70
2014,06,25,10,46,18.70
2014,06,25,10,47,18.70
2014,06,25,10,48,18.70
2014,06,25,10,49,18.90
2014,06,25,10,50,19.00
2014,06,25,10,51,19.20
2014,06,25,10,52,19.30
2014,06,25,10,53,19.40
2014,06,25,10,54,19.40
2014,06,25,10,55,19.40
2014,06,25,10,56,19.40
2014,06,25,10,57,19.50
2014,06,25,10,58,19.60
2014,06,25,10,59,19.60
2014,06,25,11,00,19.60
2014,06,25,11,01,19.60
2014,06,25,11,02,19.60
2014,06,25,11,03,19.60
2014,06,25,11,04,19.70
2014,06,25,11,05,19.70
2014,06,25,11,06,19.70
2014,06,25,11,07,19.80
2014,06,25,11,08,19.80
2014,06,25,11,09,19.90
2014,06,25,11,10,19.90
2014,06,25,11,11,20.00
2014,06,25,11,12,20.00
2014,06,25,11,13,20.10
2014,06,25,11,14,20.10
2014,06,25,11,15,20.10
2014,06,25,11,16,20.10
2014,06,25,11,17,20.10
2014,06,25,11,18,20.10
2014,06,25,11,19,20.10
2014,06,25,11,20,20.20
2014,06,25,11,21,20.30
2014,06,25,11,22,20.30
2014,06,25,11,23,20.40
2014,06,25,11,24,20.50
2014,06,25,11,25,20.50
2014,06,25,11,26,20.50
2014,06,25,11,27,20.40
2014,06,25,11,28,20.40
2014,06,25,11,29,20.30
2014,06,25,11,30,20.30
2014,06,25,11,31,20.40
2014,06,25,11,32,20.40
2014,06,25,11,33,20.30
2014,06,25,11,34,20.30
2014,06,25,11,35,20.30
2014,06,25,11,36,20.40
2014,06,25,11,37,20.40
2014,06,25,11,38,20.40
2014,06,25,11,39,20.40
2014,06,25,11,40,20.50
2014,06,25,11,41,20.60
2014,06,25,11,42,20.60
2014,06,25,11,43,20.50
2014,06,25,11,44,20.50
2014,06,25,11,45,20.50
2014,06,25,11,46,20.50
2014,06,25,11,47,20.60
2014,06,25,11,48,20.60
2014,06,25,11,49,20.50
2014,06,25,11,50,20.40
2014,06,25,11,51,20.30
2014,06,25,11,52,20.40
2014,06,25,11,53,20.40
2014,06,25,11,54,20.40
2014,06,25,11,55,20.40
2014,06,25,11,56,20.50
2014,06,25,11,57,20.60
2014,06,25,11,58,20.60
2014,06,25,11,59,20.50
2014,06,25,12,00,20.40
2014,06,25,12,01,20.40
2014,06,25,12,02,20.40
2014,06,25,12,03,20.40
2014,06,25,12,04,20.50
2014,06,25,12,05,20.60
2014,06,25,12,06,20.70
2014,06,25,12,07,20.70
2014,06,25,12,08,20.80
2014,06,25,12,09,20.80
2014,06,25,12,10,20.90
2014,06,25,12,11,21.00
2014,06,25,12,12,21.00
2014,06,25,12,13,21.10
2014,06,25,12,14,21.30
2014,06,25,12,15,21.40
2014,06,25,12,16,21.40
2014,06,25,12,17,21.50
2014,06,25,12,18,21.50
2014,06,25,12,19,21.50
2014,06,25,12,20,21.50
2014,06,25,12,21,21.60
2014,06,25,12,22,21.60
2014,06,25,12,23,21.60
2014,06,25,12,24,21.70
2014,06,25,12,25,21.70
2014,06,25,12,26,21.80
2014,06,25,12,27,21.70
2014,06,25,12,28,21.70
2014,06,25,12,29,21.70
2014,06,25,12,30,21.70
2014,06,25,12,31,21.60
2014,06,25,12,32,21.70
2014,06,25,12,33,21.70
2014,06,25,12,34,21.70
2014,06,25,12,35,21.70
2014,06,25,12,36,21.60
2014,06,25,12,37,21.50
2014,06,25,12,38,21.40
2014,06,25,12,39,21.30
2014,06,25,12,40,21.30
2014,06,25,12,41,21.30
2014,06,25,12,42,21.30
2014,06,25,12,43,21.40
2014,06,25,12,44,21.50
2014,06,25,12,45,21.60
2014,06,25,12,46,21.60
2014,06,25,12,47,21.70
2014,06,25,12,48,21.80
2014,06,25,12,49,21.80
2014,06,25,12,50,21.80
2014,06,25,12,51,21.80
2014,06,25,12,52,21.80
2014,06,25,12,53,21.70
2014,06,25,12,54,21.70
2014,06,25,12,55,21.80
2014,06,25,12,56,21.80
2014,06,25,12,57,21.80
2014,06,25,12,58,21.80
2014,06,25,12,59,21.80
2014,06,25,13,00,21.80
2014,06,25,13,01,21.80
2014,06,25,13,02,21.80
2014,06,25,13,03,21.70
2014,06,25,13,04,21.70
2014,06,25,13,05,21.60
2014,06,25,13,06,21.60
2014,06,25,13,07,21.40
2014,06,25,13,08,21.40
2014,06,25,13,09,21.40
2014,06,25,13,10,21.40
2014,06,25,13,11,21.40
2014,06,25,13,12,21.40
2014,06,25,13,13,21.40
2014,06,25,13,14,21.40
2014,06,25,13,15,21.50
2014,06,25,13,16,21.50
2014,06,25,13,17,21.60
2014,06,25,13,18,21.60
2014,06,25,13,19,21.70
2014,06,25,13,20,21.80
2014,06,25,13,21,21.80
2014,06,25,13,22,21.80
2014,06,25,13,23,21.80
2014,06,25,13,24,21.80
2014,06,25,13,25,21.70
2014,06,25,13,26,21.70
2014,06,25,13,27,21.70
2014,06,25,13,28,21.70
2014,06,25,13,29,21.70
2014,06,25,13,30,21.80
2014,06,25,13,31,21.80
2014,06,25,13,32,21.80
2014,06,25,13,33,21.90
2014,06,25,13,34,21.90
2014,06,25,13,35,21.90
2014,06,25,13,36,21.90
2014,06,25,13,37,22.00
2014,06,25,13,38,22.10
2014,06,25,13,39,22.10
2014,06,25,13,40,22.00
2014,06,25,13,41,22.00
2014,06,25,13,42,22.00
2014,06,25,13,43,22.10
2014,06,25,13,44,22.10
2014,06,25,13,45,22.10
2014,06,25,13,46,22.10
2014,06,25,13,47,22.10
2014,06,25,13,48,22.10
2014,06,25,13,49,22.10
2014,06,25,13,50,22.20
2014,06,25,13,51,22.30
2014,06,25,13,52,22.40
2014,06,25,13,53,22.40
2014,06,25,13,54,22.30
2014,06,25,13,55,22.30
2014,06,25,13,56,22.30
2014,06,25,13,57,22.30
2014,06,25,13,58,22.30
2014,06,25,13,59,22.30
2014,06,25,14,00,22.30
2014,06,25,14,01,22.30
2014,06,25,14,02,22.30
2014,06,25,14,03,22.40
2014,06,25,14,04,22.40
2014,06,25,14,05,22.40
2014,06,25,14,06,22.40
2014,06,25,14,07,22.40
2014,06,25,14,08,22.40
2014,06,25,14,09,22.40
2014,06,25,14,10,22.40
2014,06,25,14,11,22.30
2014,06,25,14,12,22.30
2014,06,25,14,13,22.30
2014,06,25,14,14,22.30
2014,06,25,14,15,22.40
2014,06,25,14,16,22.40
2014,06,25,14,17,22.50
2014,06,25,14,18,22.60
2014,06,25,14,19,22.70
2014,06,25,14,20,22.80
2014,06,25,14,21,22.80
2014,06,25,14,22,22.80
2014,06,25,14,23,22.70
2014,06,25,14,24,22.60
2014,06,25,14,25,22.60
2014,06,25,14,26,22.50
2014,06,25,14,27,22.60
2014,06,25,14,28,22.60
2014,06,25,14,29,22.60
2014,06,25,14,30,22.80
2014,06,25,14,31,22.90
2014,06,25,14,32,23.10
2014,06,25,14,33,23.20
2014,06,25,14,34,23.30
2014,06,25,14,35,23.40
2014,06,25,14,36,23.40
2014,06,25,14,37,23.40
2014,06,25,14,38,23.40
2014,06,25,14,39,23.30
2014,06,25,14,40,23.30
2014,06,25,14,41,23.20
2014,06,25,14,42,23.20
2014,06,25,14,43,23.10
2014,06,25,14,44,23.10
2014,06,25,14,45,23.10
2014,06,25,14,46,23.20
2014,06,25,14,47,23.20
2014,06,25,14,48,23.30
2014,06,25,14,49,23.30
2014,06,25,14,50,23.40
2014,06,25,14,51,23.40
2014,06,25,14,52,23.40
2014,06,25,14,53,23.40
2014,06,25,14,54,23.30
2014,06,25,14,55,23.30
2014,06,25,14,56,23.30
2014,06,25,14,57,23.40
2014,06,25,14,58,23.40
2014,06,25,14,59,23.40
2014,06,25,15,00,23.30
2014,06,25,15,01,23.30
2014,06,25,15,02,23.30
2014,06,25,15,03,23.20
2014,06,25,15,04,23.20
2014,06,25,15,05,23.20
2014,06,25,15,06,23.20
2014,06,25,15,07,23.30
2014,06,25,15,08,23.40
2014,06,25,15,09,23.50
2014,06,25,15,10,23.60
2014,06,25,15,11,23.50
2014,06,25,15,12,23.50
2014,06,25,15,13,23.60
2014,06,25,15,14,23.60
2014,06,25,15,15,23.70
2014,06,25,15,16,23.80
2014,06,25,15,17,23.80
2014,06,25,15,18,23.70
2014,06,25,15,19,23.70
2014,06,25,15,20,23.70
2014,06,25,15,21,23.70
2014,06,25,15,22,23.70
2014,06,25,15,23,23.70
2014,06,25,15,24,23.80
2014,06,25,15,25,23.80
2014,06,25,15,26,23.90
2014,06,25,15,27,23.90
2014,06,25,15,28,24.00
2014,06,25,15,29,24.10
2014,06,25,15,30,24.10
2014,06,25,15,31,24.00
2014,06,25,15,32,24.00
2014,06,25,15,33,24.00
2014,06,25,15,34,23.90
2014,06,25,15,35,23.90
2014,06,25,15,36,23.90
2014,06,25,15,37,24.00
2014,06,25,15,38,24.00
2014,06,25,15,39,24.00
2014,06,25,15,40,24.10
2014,06,25,15,41,24.20
2014,06,25,15,42,24.30
2014,06,25,15,43,24.30
2014,06,25,15,44,24.40
2014,06,25,15,45,24.40
2014,06,25,15,46,24.40
2014,06,25,15,47,24.40
2014,06,25,15,48,24.40
2014,06,25,15,49,24.30
2014,06,25,15,50,24.30
2014,06,25,15,51,24.20
2014,06,25,15,52,24.20
2014,06,25,15,53,24.30
2014,06,25,15,54,24.30
2014,06,25,15,55,24.40
2014,06,25,15,56,24.40
2014,06,25,15,57,24.40
2014,06,25,15,58,24.40
2014,06,25,15,59,24.40
2014,06,25,16,00,24.40
2014,06,25,16,01,24.40
2014,06,25,16,02,24.50
2014,06,25,16,03,24.50
2014,06,25,16,04,24.60
2014,06,25,16,05,24.70
2014,06,25,16,06,24.80
2014,06,25,16,07,24.90
2014,06,25,16,08,25.00
2014,06,25,16,09,25.20
2014,06,25,16,10,25.40
2014,06,25,16,11,25.50
2014,06,25,16,12,25.50
2014,06,25,16,13,25.40
2014,06,25,16,14,25.40
2014,06,25,16,15,25.40
2014,06,25,16,16,25.30
2014,06,25,16,17,25.30
2014,06,25,16,18,25.30
2014,06,25,16,19,25.30
2014,06,25,16,20,25.30
2014,06,25,16,21,25.20
2014,06,25,16,22,25.10
2014,06,25,16,23,25.10
2014,06,25,16,24,25.10
2014,06,25,16,25,25.20
2014,06,25,16,26,25.20
2014,06,25,16,27,25.20
2014,06,25,16,28,25.20
2014,06,25,16,29,25.10
2014,06,25,16,30,25.10
2014,06,25,16,31,25.10
2014,06,25,16,32,25.00
2014,06,25,16,33,25.00
2014,06,25,16,34,25.00
2014,06,25,16,35,24.90
2014,06,25,16,36,24.90
2014,06,25,16,37,24.90
2014,06,25,16,38,25.00
2014,06,25,16,39,25.00
2014,06,25,16,40,25.00
2014,06,25,16,41,25.00
2014,06,25,16,42,25.00
2014,06,25,16,43,24.90
2014,06,25,16,44,24.80
2014,06,25,16,45,24.80
2014,06,25,16,46,24.70
2014,06,25,16,47,24.70
2014,06,25,16,48,24.70
2014,06,25,16,49,24.70
2014,06,25,16,50,24.70
2014,06,25,16,51,24.60
2014,06,25,16,52,24.60
2014,06,25,16,53,24.50
2014,06,25,16,54,24.40
2014,06,25,16,55,24.40
2014,06,25,16,56,24.30
2014,06,25,16,57,24.30
2014,06,25,16,58,24.30
2014,06,25,16,59,24.40
2014,06,25,17,00,24.40
2014,06,25,17,01,24.50
2014,06,25,17,02,24.50
2014,06,25,17,03,24.60
2014,06,25,17,04,24.60
2014,06,25,17,05,24.60
2014,06,25,17,06,24.60
2014,06,25,17,07,24.60
2014,06,25,17,08,24.50
2014,06,25,17,09,24.40
2014,06,25,17,10,24.40
2014,06,25,17,11,24.30
2014,06,25,17,12,24.30
2014,06,25,17,13,24.30
2014,06,25,17,14,24.30
2014,06,25,17,15,24.30
2014,06,25,17,16,24.30
2014,06,25,17,17,24.30
2014,06,25,17,18,24.30
2014,06,25,17,19,24.40